This demonstration page uses our WeatherBlox Daily Observations layout. Learn more.

Left ArrowRight Arrow

40.92945, -100.16068

Hourly Observations for October 22, 2020

Temp ( °F °C ) Dew Point ( °F °C ) Humidity (%) Winds ( mph kmh ) Pressure ( in mb ) Visibility ( mi km ) Precip ( " mm )
12:15 am 00:15 Cloudy with Mist and Fog 43 6.3 43 6 98 98 ESE 10 17 29.93 1013 3 4.82802 0 0
12:35 am 00:35 Cloudy with Mist and Fog 43 6.2 42 5.8 97 97 ESE 12 19 29.92 1013 2 3.21868 0 0
12:55 am 00:55 Cloudy with Mist and Fog 43 6.2 42 5.8 97 97 ESE 12 19 29.92 1013 2 3.21868 0 0
1:15 am 01:15 Cloudy with Mist and Fog 43 6.1 42 5.7 97 97 ESE 12 19 29.9 1012 1.5 2.41401 0 0
1:35 am 01:35 Cloudy with Mist and Fog 43 6 42 5.6 97 97 E 12 19 29.89 1012 0.75 1.207005 0 0
1:55 am 01:55 Cloudy with Light Rain 43 6 42 5.6 97 97 ESE 13 20 29.89 1012 0.75 1.207005 0 0
2:15 am 02:15 Cloudy with Light Rain 43 6 42 5.6 97 97 ESE 13 20 29.87 1011 1.75 2.816345 0 0
2:35 am 02:35 Cloudy with Mist and Fog 42 5.8 42 5.5 98 98 E 13 20 29.87 1012 2 3.21868 0 0
2:55 am 02:55 Cloudy with Mist and Fog 42 5.8 42 5.5 98 98 E 9 15 29.86 1011 2 3.21868 0 0
3:15 am 03:15 Cloudy with Mist and Fog 43 6 42 5.5 97 97 E 7 11 29.85 1011 2 3.21868 0 0
3:35 am 03:35 Cloudy with Mist and Fog 42 5.8 42 5.5 98 98 E 7 11 29.85 1011 1.75 2.816345 0 0
3:55 am 03:55 Cloudy with Mist and Fog 42 5.8 42 5.5 98 98 E 8 13 29.85 1011 1.75 2.816345 0 0
4:15 am 04:15 Cloudy with Mist and Fog 42 5.8 42 5.5 98 98 ENE 6 9 29.85 1011 1.75 2.816345 0 0
4:35 am 04:35 Cloudy with Drizzle 43 6 42 5.6 97 97 NE 5 7 29.86 1011 2 3.21868 0 0
4:55 am 04:55 Cloudy with Drizzle 43 6 42 5.5 97 97 NNE 5 7 29.87 1011 2.5 4.02335 0 0
5:15 am 05:15 Cloudy with Mist and Fog 43 6 42 5.6 97 97 NNE 7 11 29.87 1011 2 3.21868 0 0
5:35 am 05:35 Cloudy with Drizzle 43 6 42 5.6 97 97 NNE 6 9 29.87 1011 2.5 4.02335 0 0
5:55 am 05:55 Cloudy with Drizzle 42 5.8 42 5.5 98 98 NNE 8 13 29.87 1012 4 6.43736 0.01 0.254
6:15 am 06:15 Cloudy with Mist and Fog 42 5.7 42 5.3 97 97 NNE 7 11 29.87 1012 5 8.0467 0 0
6:35 am 06:35 Cloudy 42 5.7 42 5.3 97 97 NNE 9 15 29.87 1012 7 11.26538 0 0
6:55 am 06:55 Cloudy 42 5.7 41 5.2 97 97 NE 9 15 29.86 1011 10 16.0934 0 0
7:15 am 07:15 Cloudy 42 5.8 41 5.2 96 96 NE 10 17 29.86 1011 10 16.0934 0 0
7:35 am 07:35 Cloudy 42 5.8 41 5.2 96 96 NE 10 17 29.86 1011 10 16.0934 0 0
7:55 am 07:55 Cloudy 42 5.7 41 5 95 95 NE 12 19 29.86 1011 10 16.0934 0 0
8:15 am 08:15 Cloudy 42 5.6 41 5 96 96 NE 12 19 29.86 1011 10 16.0934 0 0
8:35 am 08:35 Cloudy 42 5.5 41 4.8 95 95 NE 13 20 29.86 1011 10 16.0934 0 0
8:55 am 08:55 Cloudy 42 5.5 41 4.8 95 95 NE 13 20 29.87 1012 10 16.0934 0 0
9:15 am 09:15 Cloudy 42 5.3 40 4.7 96 96 NE 13 20 29.88 1012 10 16.0934 0 0
9:35 am 09:35 Cloudy 42 5.3 40 4.7 96 96 NNE 13 20 29.89 1012 10 16.0934 0 0
9:55 am 09:55 Cloudy 42 5.5 41 4.8 95 95 NNE 13 20 29.89 1012 7 11.26538 0 0
10:15 am 10:15 Cloudy 42 5.5 40 4.7 95 95 NNE 15 24 29.9 1013 10 16.0934 0 0
10:35 am 10:35 Cloudy 42 5.4 40 4.5 94 94 NNE 12 19 29.91 1013 10 16.0934 0 0
10:55 am 10:55 Cloudy 42 5.5 40 4.5 93 93 NNE 10 17 29.93 1014 10 16.0934 0 0
11:15 am 11:15 Cloudy 42 5.6 40 4.7 94 94 N 12 19 29.93 1014 10 16.0934 0 0
11:35 am 11:35 Cloudy 42 5.5 40 4.6 94 94 N 14 22 29.94 1014 7 11.26538 0 0
11:55 am 11:55 Cloudy 42 5.5 40 4.6 94 94 N 14 22 29.95 1014 10 16.0934 0 0
12:15 pm 12:15 Cloudy 42 5.5 40 4.5 93 93 N 16 26 29.95 1014 7 11.26538 0 0
12:35 pm 12:35 Cloudy 42 5.3 40 4.5 95 95 N 15 24 29.96 1014 7 11.26538 0 0
12:55 pm 12:55 Cloudy 42 5.3 39 4 91 91 N 14 22 29.97 1015 10 16.0934 0 0
1:15 pm 13:15 Cloudy 40 4.7 38 3.5 92 92 N 15 24 29.96 1015 10 16.0934 0 0
1:35 pm 13:35 Cloudy 40 4.5 38 3.2 91 91 N 14 22 29.97 1015 10 16.0934 0 0
1:55 pm 13:55 Cloudy 40 4.3 37 2.7 89 89 N 15 24 29.98 1015 10 16.0934 0 0
2:15 pm 14:15 Cloudy 40 4.2 37 2.6 89 89 N 18 30 30 1016 10 16.0934 0 0
2:35 pm 14:35 Cloudy with Mist and Fog 38 3.5 36 2.2 91 91 N 16 26 30.02 1017 4 6.43736 0.01 0.254
2:55 pm 14:55 Cloudy with Mist and Fog 38 3.2 36 2.2 93 93 N 15 24 30.04 1017 3 4.82802 0.01 0.254
3:15 pm 15:15 Cloudy with Mist and Fog 38 3.1 36 2.1 93 93 N 17 28 30.04 1017 2.5 4.02335 0 0
3:35 pm 15:35 Cloudy with Mist and Fog 37 2.8 35 1.8 93 93 N 17 28 30.06 1018 2.5 4.02335 0 0
3:55 pm 15:55 Cloudy with Mist and Fog 37 2.8 35 1.5 91 91 N 17 28 30.06 1018 5 8.0467 0 0
4:15 pm 16:15 Cloudy 37 3 35 1.5 90 90 N 18 30 30.08 1019 10 16.0934 0 0
4:35 pm 16:35 Cloudy 38 3.1 35 1.6 90 90 N 20 31 30.09 1019 10 16.0934 0 0
4:55 pm 16:55 Cloudy 37 3 34 1.2 88 88 N 18 30 30.1 1019 10 16.0934 0 0
5:15 pm 17:15 Cloudy 37 3 34 1.2 88 88 N 21 33 30.11 1020 10 16.0934 0 0
5:35 pm 17:35 Cloudy 37 2.6 34 0.9 89 89 N 22 35 30.12 1020 10 16.0934 0 0
5:55 pm 17:55 Cloudy 36 2.3 33 0.6 89 89 N 18 30 30.13 1020 10 16.0934 0 0
6:15 pm 18:15 Cloudy 36 2 32 0.2 88 88 N 15 24 30.15 1021 10 16.0934 0 0
6:35 pm 18:35 Cloudy 35 1.8 32 0.1 89 89 N 20 31 30.16 1021 10 16.0934 0 0
6:55 pm 18:55 Cloudy 35 1.7 32 0 89 89 N 21 33 30.17 1022 10 16.0934 0 0
7:15 pm 19:15 Cloudy 35 1.5 32 -0.2 89 89 N 23 37 30.18 1022 10 16.0934 0 0
7:35 pm 19:35 Cloudy 34 1.2 31 -0.5 89 89 N 22 35 30.19 1022 10 16.0934 0 0
7:55 pm 19:55 Cloudy 34 1 31 -0.5 90 90 N 24 39 30.21 1023 10 16.0934 0 0
8:15 pm 20:15 Cloudy 33 0.8 31 -0.7 90 90 N 18 30 30.22 1023 10 16.0934 0 0
8:35 pm 20:35 Cloudy 34 1 30 -1.1 86 86 N 18 30 30.24 1024 10 16.0934 0 0
8:55 pm 20:55 Cloudy 34 1 30 -1.1 86 86 N 21 33 30.25 1024 10 16.0934 0 0
9:15 pm 21:15 Cloudy 34 1 30 -1.1 86 86 N 21 33 30.26 1025 10 16.0934 0 0
9:35 pm 21:35 Cloudy 33 0.7 30 -1 89 89 N 20 31 30.26 1025 10 16.0934 0 0
9:55 pm 21:55 Cloudy 33 0.5 30 -1.2 89 89 N 21 33 30.26 1025 10 16.0934 0 0
10:15 pm 22:15 Cloudy 33 0.3 30 -1.1 90 90 N 18 30 30.26 1025 10 16.0934 0 0
10:35 pm 22:35 Cloudy 32 0.2 30 -1.1 91 91 N 25 41 30.28 1025 10 16.0934 0 0
10:55 pm 22:55 Cloudy 32 0.1 29 -1.5 89 89 N 22 35 30.3 1026 10 16.0934 0 0
11:15 pm 23:15 Cloudy 32 0.2 29 -1.6 88 88 N 20 31 30.31 1026 10 16.0934 0 0
11:35 pm 23:35 Cloudy 32 0.1 28 -2 86 86 N 23 37 30.31 1026 10 16.0934 0 0
11:55 pm 23:55 Cloudy 32 0.2 28 -2 85 85 N 21 33 30.32 1027 10 16.0934 0 0

Powered by AerisWeather